Onweer radar Meer informatie blitzortung!


Regen radar Meer informatie rain snow radar


Bezoek onze andere website:

Template documentation
and downloads

And another site



15 daagse weersverwachting Horten (NO)

  • Overzicht
  • Per uur
  • 15 dagen
  • Extra
  • Vergelijk
  • Kaarten
  • Dagkaart
  • Meer »
  • Info
  • Statistieken
  • Directe link
    Temp 6h Neerslag Wind  
 07:15     19:05    Daglengte: 11:50 Vandaag
08:00
12°
 
2
14:00
15°
 
6
20:00
14°
 
2
 07:17     19:02    Daglengte: 11:45 Morgen
02:00
13°
 
3
08:00
12°
 
4
14:00
14°
 
3
20:00
15°
 
6
 07:19     18:59    Daglengte: 11:40 Dinsdag 28 Sep
02:00
12°
21.1 mm
7
08:00
12°
48.4 mm
6
14:00
14°
46.5 mm
3
20:00
13°
 
2
 07:22     18:56    Daglengte: 11:34 Woensdag 29 Sep
02:00
13°
 
2
Locatie info
Region: Vestfold
Latitude: 59.4176°N
Longitude: 10.4824°E
16 masl
Postcode: 3181
Temp/Neerslag /Baro Onweer/Dauwpunt
    Temp Baro 1h Neerslag Dauwpunt Wind UV Bewolking  
 07:15     19:05    Daglengte: 11:50 Vandaag
05:00
12°
1016.4 hPa   11.3°
1
Windvlaag: 0.6 m/s
45%
06:00
12°
1016.6 hPa   11.5°
1
Windvlaag: 0.5 m/s
45%
07:00
12°
1016.9 hPa   11.1°
1
Windvlaag: 0.2 m/s
67%
08:00
12°
1017.3 hPa   11.2°
2
Windvlaag: 0.4 m/s
61%
09:00
13°
1017.9 hPa   11.5°
2
Windvlaag: 1.8 m/s
63%
10:00
13°
1018.4 hPa   11.6°
3
Windvlaag: 2.4 m/s
70%
11:00
14°
1018.7 hPa   11.3°
4
Windvlaag: 4.2 m/s
75%
12:00
15°
1018.9 hPa   11.0°
5
Windvlaag: 5 m/s
79%
13:00
15°
1018.9 hPa   10.6°
5
Windvlaag: 5.6 m/s
78%
14:00
15°
1019.2 hPa   10.3°
6
Windvlaag: 6 m/s
82%
15:00
15°
1019.1 hPa   10.7°
6
Windvlaag: 6.5 m/s
79%
16:00
15°
1019.1 hPa   10.6°
5
Windvlaag: 6.5 m/s
78%
17:00
15°
1019.0 hPa   10.5°
5
Windvlaag: 6.1 m/s
65%
18:00
15°
1019.1 hPa   10.4°
4
Windvlaag: 6 m/s
18%
19:00
14°
1019.4 hPa   10.5°
3
Windvlaag: 5.8 m/s
15%
20:00
14°
1019.7 hPa   10.6°
2
Windvlaag: 3.8 m/s
59%
21:00
14°
1019.9 hPa   10.9°
1
Windvlaag: 2.6 m/s
67%
22:00
14°
1019.9 hPa
12%
10.9°
2
Windvlaag: 1.6 m/s
63%
23:00
14°
1020.0 hPa   10.9°
2
Windvlaag: 0.6 m/s
66%
 07:17     19:02    Daglengte: 11:45 Morgen
00:00
14°
1020.1 hPa   10.9°
3
Windvlaag: 0.7 m/s
64%
01:00
13°
1020.1 hPa   10.8°
3
Windvlaag: 1.2 m/s
66%
02:00
13°
1020.0 hPa   10.7°
3
Windvlaag: 2 m/s
62%
03:00
13°
1019.9 hPa   10.7°
3
Windvlaag: 0.9 m/s
81%
04:00
13°
1019.7 hPa   10.6°
3
Windvlaag: 0.5 m/s
85%
05:00
13°
1019.6 hPa   10.5°
3
Windvlaag: 0.9 m/s
78%
06:00
13°
1019.3 hPa   10.7°
3
Windvlaag: -1 m/s
85%
07:00
12°
1019.3 hPa   10.7°
3
Windvlaag: -1 m/s
86%
08:00
12°
1019.3 hPa   10.6°
4
Windvlaag: -0.4 m/s
86%
09:00
12°
1019.5 hPa
25%
10.5°
4
Windvlaag: 0.8 m/s
86%
10:00
12°
1019.5 hPa
29%
10.7°
4
Windvlaag: 0.3 m/s
86%
11:00
12°
1019.4 hPa
29%
10.7°
4
Windvlaag: -1.3 m/s
86%
12:00
13°
1019.3 hPa
54%
10.7°
4
Windvlaag: -1.7 m/s
86%
13:00
13°
1018.9 hPa
14%
10.9°
3
Windvlaag: -1.9 m/s
86%
14:00
14°
1018.6 hPa
15%
11.1°
3
Windvlaag: -1.9 m/s
86%
15:00
14°
1018.1 hPa
30%
11.4°
4
Windvlaag: 1.2 m/s
69%
16:00
15°
1017.6 hPa
32%
12.1°
6
Windvlaag: 3.2 m/s
66%
17:00
15°
1016.8 hPa
70%
12.3°
6
Windvlaag: 3.5 m/s
86%
18:00
15°
1016.2 hPa
76%
12.4°
6
Windvlaag: 3.6 m/s
86%
19:00
15°
1016.1 hPa
69%
12.4°
6
Windvlaag: 4.8 m/s
86%
20:00
15°
1016.1 hPa
36%
12.5°
6
Windvlaag: 5.1 m/s
86%
21:00
15°
1016.0 hPa 1.9 mm
78%
11.9°
6
Windvlaag: 5.8 m/s
86%
22:00
14°
1015.7 hPa 2.0 mm
82%
11.8°
7
Windvlaag: 7.5 m/s
86%
23:00
14°
1015.5 hPa 1.9 mm
100%
7.4°
7
Windvlaag: 7.4 m/s
100%
 07:19     18:59    Daglengte: 11:40 Dinsdag 28 Sep
00:00
13°
1015.9 hPa 3.8 mm
100%
9.5°
7
Windvlaag: 7.5 m/s
100%
01:00
13°
1015.8 hPa 5.5 mm
100%
10.8°
6
Windvlaag: 7.9 m/s
100%
02:00
12°
1015.6 hPa 6.0 mm
100%
10.9°
7
Windvlaag: 7.8 m/s
100%
03:00
12°
1015.4 hPa 7.0 mm
100%
10.5°
6
Windvlaag: 7.4 m/s
100%
04:00
12°
1015.4 hPa 7.6 mm
100%
10.7°
6
Windvlaag: 7.1 m/s
100%
05:00
12°
1015.0 hPa 7.3 mm
100%
11.4°
7
Windvlaag: 7.5 m/s
100%
06:00
12°
1015.0 hPa 8.0 mm
100%
11.1°
6
Windvlaag: 8.7 m/s
100%
07:00
12°
1014.8 hPa 8.9 mm
100%
11.8°
6
Windvlaag: 8 m/s
100%
08:00
12°
1015.6 hPa 9.7 mm
100%
11.9°
6
Windvlaag: 9.6 m/s
100%
09:00
12°
1017.3 hPa 16.2 mm
100%
11.8°
4
Windvlaag: 7 m/s
100%
10:00
12°
1017.9 hPa 15.2 mm
100%
12.0°
3
Windvlaag: 6.4 m/s
100%
11:00
13°
1018.1 hPa 15.1 mm
100%
12.0°
3
Windvlaag: 5.6 m/s
100%
12:00
13°
1018.4 hPa
100%
12.8°
4
Windvlaag: 4.6 m/s
100%
13:00
14°
1018.7 hPa
86%
13.2°
5
Windvlaag: 3.1 m/s
100%
14:00
14°
1019.1 hPa
82%
13.3°
3
Windvlaag: 3.7 m/s
100%
15:00
14°
1019.4 hPa
79%
13.6°
3
Windvlaag: 3.3 m/s
83%
16:00
14°
1019.7 hPa
35%
13.5°
2
Windvlaag: 3.1 m/s
75%
17:00
14°
1020.1 hPa
34%
13.5°
2
Windvlaag: 2.2 m/s
70%
18:00
14°
1020.4 hPa
35%
13.5°
2
Windvlaag: 2.7 m/s
70%
19:00
14°
1020.8 hPa
83%
13.3°
2
Windvlaag: 2.9 m/s
70%
20:00
13°
1021.0 hPa
77%
12.9°
2
Windvlaag: 4.2 m/s
21%
21:00
14°
1022.0 hPa
29%
-37.5°
2
Windvlaag: 0 m/s
57%
Temp/Neerslag /Baro Onweer/Dauwpunt
    Temp Baro Neerslag Dauwpunt Wind Bewolking  
 07:15     19:05    Daglengte: 11:50 Vandaag
05:00
12°
1016.4 hPa   11.3°
1
45%
08:00
12°
1017.3 hPa   11.2°
2
61%
11:00
14°
1018.7 hPa   11.3°
4
75%
14:00
15°
1019.2 hPa   10.3°
6
82%
17:00
15°
1019.0 hPa   10.5°
5
65%
20:00
14°
1019.7 hPa   10.6°
2
59%
23:00
14°
1020.0 hPa   10.9°
2
66%
 07:17     19:02    Daglengte: 11:45 Morgen
02:00
13°
1020.0 hPa   10.7°
3
62%
05:00
13°
1019.6 hPa   10.5°
3
78%
08:00
12°
1019.3 hPa   10.6°
4
86%
11:00
12°
1019.4 hPa   10.7°
4
86%
14:00
14°
1018.6 hPa   11.1°
3
86%
17:00
15°
1016.8 hPa   12.3°
6
86%
20:00
15°
1016.1 hPa   12.5°
6
86%
23:00
14°
1015.5 hPa 5.8 mm 7.4°
7
100%
 07:19     18:59    Daglengte: 11:40 Dinsdag 28 Sep
02:00
12°
1015.6 hPa 15.3 mm 10.9°
7
100%
05:00
12°
1015.0 hPa 21.8 mm 11.4°
7
100%
08:00
12°
1015.6 hPa 26.6 mm 11.9°
6
100%
11:00
13°
1018.1 hPa 46.5 mm 12.0°
3
100%
14:00
14°
1019.1 hPa   13.3°
3
100%
17:00
14°
1020.1 hPa   13.5°
2
70%
20:00
13°
1021.0 hPa   12.9°
2
21%
23:00
13°
1022.5 hPa   11.6°
2
57%
 07:22     18:56    Daglengte: 11:34 Woensdag 29 Sep
02:00
13°
1022.1 hPa   11.6°
2
88%
05:00
11°
1024.1 hPa 40.3 mm 9.3°
2
1%
08:00
10°
1024.2 hPa 40.3 mm 8.4°
2
1%
11:00
12°
1024.4 hPa 40.3 mm 8.0°
2
1%
14:00
13°
1023.8 hPa 40.3 mm 8.3°
1
1%
17:00
13°
1022.8 hPa 40.4 mm 10.0°
1
1%
20:00
13°
1022.1 hPa 40.8 mm 10.4°
2
1%
23:00
12°
1021.0 hPa 42.6 mm 11.0°
3
1%
 07:24     18:53    Daglengte: 11:29 Donderdag 30 Sep
02:00
12°
1019.5 hPa 51.2 mm 11.1°
5
1%
05:00
11°
1018.7 hPa 53.6 mm 9.8°
5
1%
08:00
11°
1018.0 hPa 55.0 mm 10.0°
2
1%
11:00
11°
1017.4 hPa 56.9 mm 10.3°
1
1%
14:00
11°
1017.3 hPa 57.6 mm 10.2°
1
1%
17:00
13°
1017.0 hPa 58.0 mm 9.0°
7
1%
20:00
10°
Voelt als: 6.8°
1017.5 hPa 59.1 mm 8.5°
6
1%
23:00
11°
1015.5 hPa 61.3 mm 9.8°
10
1%
 07:26     18:50    Daglengte: 11:24 Vrijdag 01 Okt
02:00
12°
1014.2 hPa 65.1 mm 10.5°
7
1%
05:00
11°
1014.0 hPa 65.7 mm 9.5°
5
1%
08:00
Voelt als: 7.9°
1015.1 hPa 65.8 mm 8.0°
3
1%
11:00
11°
1016.7 hPa 65.8 mm 6.2°
2
1%
14:00
12°
1017.1 hPa 65.8 mm 5.3°
4
1%
17:00
12°
1016.5 hPa 65.8 mm 4.7°
5
1%
23:00
10°
1015.4 hPa 65.8 mm 6.7°
4
1%
 07:29     18:47    Daglengte: 11:18 Zaterdag 02 Okt
02:00
12°
1012.0 hPa 66.2 mm 10.0°
8
1%
05:00
12°
1009.1 hPa 66.6 mm 10.6°
10
1%
08:00
13°
1005.2 hPa 67.2 mm 11.2°
13
1%
11:00
13°
1002.4 hPa 76.0 mm 12.3°
15
1%
14:00
13°
1003.0 hPa 88.4 mm 12.3°
12
1%
17:00
13°
1004.4 hPa 93.9 mm 11.7°
7
1%
20:00
11°
1006.3 hPa 95.2 mm 9.9°
4
1%
23:00
12°
1007.4 hPa 95.3 mm 9.9°
5
1%
 07:31     18:44    Daglengte: 11:13 Zondag 03 Okt
02:00
11°
1007.7 hPa 95.4 mm 9.1°
3
1%
05:00
11°
1007.4 hPa   8.9°
2
1%
08:00
11°
1007.3 hPa 193.8 mm 9.3°
2
1%
14:00
10°
1007.2 hPa 209.8 mm 9.4°
0
1%
20:00
10°
1007.3 hPa 218.6 mm 9.3°
1
1%
 07:33     18:41    Daglengte: 11:08 Maandag 04 Okt
02:00
10°
1007.7 hPa 234.2 mm 8.7°
3
1%
08:00
Voelt als: 5.8°
1012.3 hPa 237.5 mm 6.3°
5
1%
14:00
13°
1017.9 hPa 237.5 mm 7.2°
5
0%
20:00
11°
1021.0 hPa 237.7 mm 8.9°
4
1%
 07:36     18:38    Daglengte: 11:02 Dinsdag 05 Okt
02:00
11°
1022.2 hPa 238.3 mm 9.5°
4
1%
08:00
12°
1022.2 hPa 239.1 mm 9.8°
5
1%
14:00
13°
1022.2 hPa 239.9 mm 9.7°
6
1%
20:00
11°
1021.4 hPa 240.6 mm 9.9°
4
1%
 07:38     18:35    Daglengte: 10:57 Woensdag 06 Okt
02:00
10°
1009.5 hPa 2.2 mm 8.1°
1
72%
08:00
1009.3 hPa 1.4 mm 7.3°
0
71%
14:00
11°
1009.5 hPa 1.7 mm 7.6°
1
77%
20:00
10°
1010.0 hPa 1.9 mm 7.6°
1
76%
 07:40     18:32    Daglengte: 10:52 Donderdag 07 Okt
02:00
1011.4 hPa 0.4 mm 6.8°
0
63%
08:00
1012.4 hPa 0.9 mm 6.0°
1
66%
14:00
11°
1013.5 hPa 0.8 mm 6.7°
1
65%
20:00
10°
Voelt als: 8.9°
1014.0 hPa 0.8 mm 7.0°
2
61%
 07:43     18:29    Daglengte: 10:46 Vrijdag 08 Okt
02:00
Voelt als: 7.9°
1014.4 hPa 1.2 mm 6.7°
2
64%
08:00
Voelt als: 8.0°
1014.3 hPa 1.0 mm 6.3°
1
65%
14:00
11°
1014.5 hPa 0.7 mm 6.6°
2
62%
20:00
Voelt als: 8.6°
1014.6 hPa 0.5 mm 7.1°
2
63%
 07:45     18:26    Daglengte: 10:41 Zaterdag 09 Okt
02:00
Voelt als: 8.5°
1014.7 hPa 0.4 mm 6.6°
1
70%
08:00
1014.5 hPa 0.9 mm 6.4°
1
69%
14:00
11°
1014.9 hPa 0.7 mm 6.9°
2
73%
20:00
10°
Voelt als: 8.7°
1014.8 hPa 0.7 mm 7.1°
2
71%
 07:47     18:23    Daglengte: 10:36 Zondag 10 Okt
02:00
Voelt als: 8.6°
1014.8 hPa 0.9 mm 6.9°
1
65%
08:00
1014.1 hPa 0.5 mm 6.4°
1
71%
14:00
11°
1014.2 hPa 0.6 mm 7.0°
1
66%
20:00
10°
Voelt als: 9.6°
1015.1 hPa 0.4 mm 7.2°
1
60%
 07:50     18:21    Daglengte: 10:31 Maandag 11 Okt
02:00
1016.3 hPa 0.3 mm 6.3°
1
61%
  CAPE Lifted Index Hail Supercell Tornado SRH 3km CL BTM PRES CL TOP PRES Swiss DWD icon SMHI TS
 07:15     19:05    Daglengte: 11:50 Vandaag
05:00 0 J/kg 7.2 K 0 % 0 % 0 % 0 m²/s² 0 0 10.44 3
06:00 0 J/kg 7.3 K 0 % 0 % 0 % 0 m²/s² 0 0 10.03 3
07:00 0 J/kg 7.9 K 0 % 0 % 0 % 0 m²/s² 0 0 9.91 3
08:00 0 J/kg 7.8 K 0 % 0 % 0 % 0 m²/s² 0 0 9.75 3
09:00 0 J/kg 8.4 K 0 % 0 % 0 % 0 m²/s² 0 0 10.17 3
10:00 1 J/kg 8.5 K 0 % 0 % 0 % 0 m²/s² 0 0 9.85 3
11:00 1 J/kg 8.1 K 0 % 0 % 0 % 0 m²/s² 0 0 9.36 3
12:00 0 J/kg 8.1 K 0 % 0 % 0 % 0 m²/s² 0 0 9.57 3
13:00 0 J/kg 8.3 K 0 % 0 % 0 % 0 m²/s² 0 0 10.07 3
14:00 0 J/kg 8.8 K 0 % 0 % 0 % 0 m²/s² 0 0 10.63 3
15:00 0 J/kg 9.5 K 0 % 0 % 0 % 0 m²/s² 0 0 11.45 3
16:00 0 J/kg 9.7 K 0 % 0 % 0 % 0 m²/s² 0 0 11.92 3
17:00 0 J/kg 8.9 K 0 % 0 % 0 % 0 m²/s² 0 0 11.39 3
18:00 0 J/kg 8.6 K 0 % 0 % 0 % 0 m²/s² 0 0 11.42 1
19:00 0 J/kg 8.6 K 0 % 0 % 0 % 0 m²/s² 0 0 11.66 2
20:00 0 J/kg 8.6 K 0 % 0 % 0 % 0 m²/s² 0 0 11.99 3
21:00 0 J/kg 8.4 K 0 % 0 % 0 % 0 m²/s² 0 0 11.88 3
22:00 0 J/kg 8.3 K 0 % 0 % 0 % 0 m²/s² 0 0 11.36 3
23:00 0 J/kg 7.5 K 0 % 0 % 0 % 0 m²/s² 0 0 9.87 3
 07:17     19:02    Daglengte: 11:45 Morgen
00:00 0 J/kg 6.0 K 0 % 0 % 0 % 0 m²/s² 0 0 8.01 3
01:00 0 J/kg 6.4 K 0 % 0 % 0 % 0 m²/s² 0 0 8.05 3
02:00 0 J/kg 6.2 K 0 % 0 % 0 % 0 m²/s² 0 0 7.85 3
03:00 0 J/kg 5.9 K 0 % 0 % 0 % 0 m²/s² 0 0 7.25 3
04:00 0 J/kg 6.4 K 0 % 0 % 0 % 0 m²/s² 0 0 7.75 3
05:00 0 J/kg 6.7 K 0 % 0 % 0 % 0 m²/s² 0 0 7.93 3
06:00 0 J/kg 6.4 K 0 % 0 % 0 % 0 m²/s² 0 0 7.87 3
07:00 0 J/kg 4.9 K 0 % 0 % 0 % 0 m²/s² 0 0 6.19 3
08:00 0 J/kg 4.5 K 0 % 0 % 0 % 0 m²/s² 0 0 5.55 3
09:00 0 J/kg 4.0 K 0 % 0 % 0 % 0 m²/s² 0 0 5.08 3
10:00 0 J/kg 3.2 K 0 % 0 % 0 % 0 m²/s² 0 0 4.91 3
11:00 0 J/kg 2.9 K 0 % 0 % 0 % 0 m²/s² 0 0 4.97 3
12:00 0 J/kg 4.0 K 0 % 0 % 0 % 0 m²/s² 0 0 4.12 3
13:00 0 J/kg 4.9 K 0 % 0 % 0 % 0 m²/s² 0 0 5.02 3
14:00 0 J/kg 4.5 K 0 % 0 % 0 % 0 m²/s² 0 0 5.58 3
15:00 0 J/kg 4.2 K 0 % 0 % 0 % 0 m²/s² 0 0 5.85 3
16:00 0 J/kg 3.2 K 0 % 0 % 0 % 0 m²/s² 0 0 4.19 3
17:00 0 J/kg 2.8 K 0 % 0 % 0 % 0 m²/s² 0 0 3.79 3
18:00 0 J/kg 2.5 K 0 % 0 % 0 % 0 m²/s² 0 0 3.97 3
19:00 0 J/kg 2.0 K 0 % 0 % 0 % 0 m²/s² 0 0 3.29 3
20:00 0 J/kg 2.2 K 0 % 0 % 0 % 0 m²/s² 0 0 3.55 3
21:00 0 J/kg 3.0 K 0 % 0 % 0 % 0 m²/s² 0 0 4.2 80
22:00 0 J/kg 2.4 K 0 % 0 % 0 % 0 m²/s² 0 0 3.09 61
23:00 0 J/kg 3.0 K 0 % 0 % 0 % 0 m²/s² 0 0 3.09 61
 07:19     18:59    Daglengte: 11:40 Dinsdag 28 Sep
00:00 0 J/kg 3.4 K 0 % 0 % 0 % 0 m²/s² 0 0 3.4 63
01:00 1 J/kg 2.9 K 0 % 0 % 0 % 0 m²/s² 0 0 2.9 63
02:00 0 J/kg 2.8 K 0 % 0 % 0 % 0 m²/s² 0 0 2.8 63
03:00 0 J/kg 3.5 K 0 % 0 % 0 % 0 m²/s² 0 0 3.5 63
04:00 0 J/kg 4.5 K 0 % 0 % 0 % 0 m²/s² 0 0 4.5 63
05:00 1 J/kg 4.3 K 0 % 0 % 0 % 0 m²/s² 0 0 4.33 61
06:00 3 J/kg 4.1 K 0 % 0 % 0 % 0 m²/s² 0 0 4.13 61
07:00 2 J/kg 3.6 K 0 % 0 % 0 % 0 m²/s² 0 0 3.69 61
08:00 2 J/kg 4.6 K 0 % 0 % 0 % 0 m²/s² 0 0 4.63 63
09:00 2 J/kg 4.2 K 0 % 0 % 0 % 0 m²/s² 0 0 4.38 63
10:00 2 J/kg 3.5 K 0 % 0 % 0 % 0 m²/s² 0 0 3.62 80
11:00 2 J/kg 4.0 K 0 % 0 % 0 % 0 m²/s² 0 0 4.12 80
12:00 2 J/kg 4.4 K 0 % 0 % 0 % 0 m²/s² 0 0 4.52 61
13:00 2 J/kg 4.4 K 0 % 0 % 0 % 0 m²/s² 0 0 4.97 3
14:00 3 J/kg 4.9 K 0 % 0 % 0 % 0 m²/s² 0 0 7.96 3
15:00 2 J/kg 5.0 K 0 % 0 % 0 % 0 m²/s² 0 0 9.08 3
16:00 3 J/kg 5.1 K 0 % 0 % 0 % 0 m²/s² 0 0 10.35 3
17:00 2 J/kg 5.3 K 0 % 0 % 0 % 0 m²/s² 0 0 10.97 3
18:00 1 J/kg 5.5 K 0 % 0 % 0 % 0 m²/s² 0 0 11.35 3
19:00 0 J/kg 5.9 K 0 % 0 % 0 % 0 m²/s² 0 0 11.27 3
20:00 0 J/kg 5.8 K 0 % 0 % 0 % 0 m²/s² 0 0 13.03 2
21:00 0 J/kg 0.0 K 0 % 0 % 0 % 0 m²/s² 0 0 13.83 3
Temp Baro Wind Neerslag
  EWN Forecast EWN WRFDA DWD ICON FMI HIRLAM MET Norway GFS
 07:15     19:05    Daglengte: 11:50 Vandaag
05:00 12.3° 1016.4 hPa 1.5 m/s 0.0 mm 9.0° 1015.9 hPa 1.3 m/s 0.0 mm 14.0° 1016.0 hPa 2.8 m/s -2.0 mm 9.9° 1017.0 hPa 1.3 m/s 0.0 mm 11.5° 1015.8 hPa 2.2 m/s
08:00 12.3° 1017.3 hPa 1.7 m/s 0.0 mm 11.1° 1016.7 hPa 1.1 m/s 0.0 mm 13.4° 1017.3 hPa 3.0 m/s 0.0 mm 10.2° 1017.5 hPa 1.0 m/s 0.0 mm 12.1° 1016.7 hPa 2.2 m/s
11:00 14.0° 1018.7 hPa 4.2 m/s 0.0 mm 13.6° 1018.3 hPa 3.3 m/s 0.0 mm 14.1° 1018.7 hPa 4.4 m/s 0.0 mm 14.2° 1018.3 hPa 3.6 m/s 0.0 mm 14.3° 1018.1 hPa 3.6 m/s
14:00 15.0° 1019.2 hPa 5.6 m/s 0.0 mm 15.3° 1018.1 hPa 4.2 m/s 0.0 mm 14.9° 1019.4 hPa 5.8 m/s 0.0 mm 15.6° 1018.7 hPa 5.7 m/s 0.0 mm 15.2° 1018.5 hPa 5.8 m/s
17:00 14.6° 1019.0 hPa 4.8 m/s 0.0 mm 15.4° 1018.0 hPa 3.1 m/s 0.0 mm 14.5° 1019.0 hPa 4.1 m/s 0.0 mm 14.8° 1019.0 hPa 5.4 m/s 0.0 mm 14.7° 1018.9 hPa 4.6 m/s
20:00 13.9° 1019.7 hPa 2.1 m/s 0.0 mm 11.9° 1018.9 hPa 1.9 m/s 0.0 mm 14.1° 1019.9 hPa 2.1 m/s 0.0 mm 14.0° 1019.2 hPa 2.1 m/s 0.0 mm 12.6° 1019.6 hPa 2.2 m/s
23:00 13.7° 1020.0 hPa 2.3 m/s 0.0 mm 10.7° 1018.5 hPa 2.3 m/s 0.0 mm 13.9° 1020.6 hPa 0.5 m/s 0.0 mm 14.2° 1019.5 hPa 2.5 m/s 0.0 mm 12.2° 1020.4 hPa 1.0 m/s
 07:17     19:02    Daglengte: 11:45 Morgen
02:00 13.4° 1020.0 hPa 2.9 m/s 0.0 mm 11.9° 1019.1 hPa 2.0 m/s 0.0 mm 13.6° 1020.6 hPa 1.8 m/s 0.0 mm 13.7° 1019.2 hPa 3.2 m/s 0.0 mm 11.7° 1020.6 hPa 1.6 m/s
05:00 12.7° 1019.6 hPa 2.7 m/s 0.0 mm 10.5° 1018.6 hPa 3.9 m/s 0.0 mm 13.1° 1020.6 hPa 2.3 m/s 0.0 mm 13.0° 1018.5 hPa 2.9 m/s 0.0 mm 11.9° 1020.4 hPa 2.0 m/s
08:00 12.2° 1019.3 hPa 3.7 m/s 0.0 mm 10.8° 1018.6 hPa 3.1 m/s 0.0 mm 12.4° 1020.9 hPa 4.2 m/s 0.0 mm 12.6° 1018.5 hPa 3.8 m/s 0.0 mm 11.9° 1020.3 hPa 2.8 m/s
11:00 12.4° 1019.4 hPa 3.5 m/s 0.0 mm 11.8° 1018.5 hPa 2.8 m/s 1.0 mm 12.2° 1021.2 hPa 3.5 m/s 0.0 mm 13.4° 1018.5 hPa 4.2 m/s 0.0 mm 12.5° 1020.4 hPa 3.5 m/s
14:00 13.9° 1018.6 hPa 3.4 m/s 0.0 mm 13.9° 1017.6 hPa 3.0 m/s 3.9 mm 13.4° 1020.1 hPa 3.4 m/s 0.0 mm 15.0° 1017.5 hPa 4.4 m/s 0.0 mm 13.2° 1019.2 hPa 3.8 m/s
17:00 14.8° 1016.8 hPa 5.8 m/s 0.0 mm 16.3° 1015.4 hPa 6.2 m/s 4.7 mm 15.1° 1018.5 hPa 3.1 m/s 0.1 mm 14.6° 1016.4 hPa 5.9 m/s 0.0 mm 14.4° 1016.8 hPa 4.8 m/s
20:00 14.8° 1016.1 hPa 6.0 m/s 0.0 mm 15.3° 1015.0 hPa 5.7 m/s 4.7 mm 15.3° 1017.7 hPa 6.1 m/s 0.0 mm 14.7° 1016.0 hPa 5.2 m/s 0.0 mm 14.2° 1016.2 hPa 7.9 m/s
23:00 14.2° 1015.5 hPa 7.1 m/s 5.8 mm 14.2° 1015.4 hPa 6.3 m/s 4.8 mm 14.5° 1017.0 hPa 5.9 m/s 1.7 mm 13.8° 1016.2 hPa 8.6 m/s
 07:19     18:59    Daglengte: 11:40 Dinsdag 28 Sep
02:00 12.5° 1015.6 hPa 6.8 m/s 15.3 mm 10.8° 1015.7 hPa 4.1 m/s 27.5 mm 12.5° 1016.7 hPa 6.6 m/s 16.0 mm 12.8° 1016.0 hPa 7.8 m/s
05:00 12.4° 1015.0 hPa 6.8 m/s 21.8 mm 10.8° 1014.9 hPa 3.7 m/s 78.8 mm 12.4° 1016.9 hPa 6.7 m/s 12.1 mm 12.3° 1015.5 hPa 7.9 m/s
08:00 12.4° 1015.6 hPa 5.8 m/s 26.6 mm 11.0° 1015.6 hPa 5.1 m/s 115.2 mm 12.2° 1017.5 hPa 3.8 m/s 5.1 mm 13.0° 1016.6 hPa 4.9 m/s
11:00 12.7° 1018.1 hPa 2.7 m/s 46.5 mm 11.5° 1016.5 hPa 2.8 m/s 129.7 mm 12.9° 1018.6 hPa 2.7 m/s 5.0 mm 13.6° 1019.3 hPa 4.0 m/s
14:00 13.8° 1019.1 hPa 3.0 m/s 0.0 mm 11.8° 1017.8 hPa 2.3 m/s 138.8 mm 14.3° 1019.4 hPa 3.1 m/s 0.1 mm 14.0° 1020.9 hPa 2.6 m/s
17:00 14.2° 1020.1 hPa 2.0 m/s 0.0 mm 12.2° 1018.0 hPa 1.8 m/s 141.0 mm 14.7° 1020.6 hPa 2.1 m/s 0.0 mm 14.1° 1022.2 hPa 2.1 m/s
20:00 13.4° 1021.0 hPa 2.0 m/s 0.0 mm 11.9° 1018.3 hPa 2.7 m/s 142.0 mm 13.8° 1021.6 hPa 1.8 m/s 0.0 mm 12.7° 1023.6 hPa 2.4 m/s
23:00 13.3° 1022.5 hPa 1.6 m/s 0.0 mm 13.4° 1022.2 hPa 1.5 m/s 0.0 mm 12.1° 1024.6 hPa 2.0 m/s 40.3 mm
 07:22     18:56    Daglengte: 11:34 Woensdag 29 Sep
02:00 12.9° 1022.1 hPa 1.7 m/s 0.0 mm 13.1° 1021.7 hPa 1.7 m/s 0.0 mm 11.2° 1024.9 hPa 1.6 m/s 40.3 mm
05:00 10.7° 1024.1 hPa 1.8 m/s 40.3 mm 10.7° 1024.1 hPa 1.8 m/s 40.3 mm
08:00 10.1° 1024.2 hPa 2.1 m/s 40.3 mm 10.1° 1024.2 hPa 2.1 m/s 40.3 mm
11:00 11.9° 1024.4 hPa 2.4 m/s 40.3 mm 11.9° 1024.4 hPa 2.4 m/s 40.3 mm
14:00 13.4° 1023.8 hPa 1.4 m/s 40.3 mm 13.4° 1023.8 hPa 1.4 m/s 40.3 mm
17:00 13.4° 1022.8 hPa 1.4 m/s 40.4 mm 13.4° 1022.8 hPa 1.4 m/s 40.4 mm
20:00 12.5° 1022.1 hPa 1.6 m/s 40.8 mm 12.5° 1022.1 hPa 1.6 m/s 40.8 mm
23:00 11.8° 1021.0 hPa 2.6 m/s 42.6 mm 11.8° 1021.0 hPa 2.6 m/s 42.7 mm
 07:24     18:53    Daglengte: 11:29 Donderdag 30 Sep
02:00 11.9° 1019.5 hPa 4.7 m/s 51.2 mm 11.9° 1019.5 hPa 4.7 m/s 51.2 mm
05:00 11.2° 1018.7 hPa 4.6 m/s 53.6 mm 11.2° 1018.7 hPa 4.6 m/s 53.6 mm
08:00 11.0° 1018.0 hPa 1.9 m/s 55.0 mm 11.0° 1018.0 hPa 1.9 m/s 55.0 mm
11:00 11.1° 1017.4 hPa 0.8 m/s 56.9 mm 11.1° 1017.4 hPa 0.8 m/s 56.9 mm
14:00 11.3° 1017.3 hPa 1.4 m/s 57.6 mm 11.3° 1017.3 hPa 1.4 m/s 57.6 mm
17:00 12.5° 1017.0 hPa 6.9 m/s 58.0 mm 12.5° 1017.0 hPa 6.9 m/s 58.0 mm
20:00 9.8° 1017.5 hPa 6.4 m/s 59.1 mm 9.8° 1017.5 hPa 6.4 m/s 59.1 mm
23:00 11.3° 1015.5 hPa 10.2 m/s 61.3 mm 11.3° 1015.5 hPa 10.2 m/s 61.3 mm
 07:26     18:50    Daglengte: 11:24 Vrijdag 01 Okt
02:00 11.8° 1014.2 hPa 6.6 m/s 65.1 mm 11.8° 1014.2 hPa 6.6 m/s 65.1 mm
05:00 11.1° 1014.0 hPa 5.1 m/s 65.7 mm 11.1° 1014.0 hPa 5.1 m/s 65.7 mm
08:00 9.2° 1015.1 hPa 2.6 m/s 65.8 mm 9.2° 1015.1 hPa 2.6 m/s 65.8 mm
11:00 11.2° 1016.7 hPa 2.3 m/s 65.8 mm 11.2° 1016.7 hPa 2.3 m/s 65.8 mm
14:00 12.3° 1017.1 hPa 3.6 m/s 65.8 mm 12.3° 1017.1 hPa 3.6 m/s 65.8 mm
17:00 11.6° 1016.5 hPa 5.2 m/s 65.8 mm 11.6° 1016.5 hPa 5.2 m/s 65.8 mm
23:00 10.2° 1015.4 hPa 4.3 m/s 65.8 mm 10.2° 1015.4 hPa 4.3 m/s 65.8 mm
 07:29     18:47    Daglengte: 11:18 Zaterdag 02 Okt
02:00 12.1° 1012.0 hPa 8.0 m/s 66.2 mm 12.1° 1012.0 hPa 8.0 m/s 66.2 mm
05:00 12.3° 1009.1 hPa 9.7 m/s 66.6 mm 12.3° 1009.1 hPa 9.7 m/s 66.6 mm
08:00 12.8° 1005.2 hPa 12.8 m/s 67.2 mm 12.8° 1005.2 hPa 12.8 m/s 67.2 mm
11:00 13.1° 1002.4 hPa 14.7 m/s 76.0 mm 13.1° 1002.4 hPa 14.7 m/s 76.0 mm
14:00 13.3° 1003.0 hPa 12.3 m/s 88.4 mm 13.3° 1003.0 hPa 12.3 m/s 88.4 mm
17:00 12.8° 1004.4 hPa 7.1 m/s 93.9 mm 12.8° 1004.4 hPa 7.1 m/s 93.9 mm
20:00 11.2° 1006.3 hPa 3.9 m/s 95.2 mm 11.2° 1006.3 hPa 3.9 m/s 95.2 mm
23:00 11.9° 1007.4 hPa 4.8 m/s 95.3 mm 11.9° 1007.4 hPa 4.8 m/s 95.3 mm
 07:31     18:44    Daglengte: 11:13 Zondag 03 Okt
02:00 11.3° 1007.7 hPa 2.7 m/s 95.4 mm 11.3° 1007.7 hPa 2.7 m/s 95.4 mm
05:00 11.0° 1007.4 hPa 1.8 m/s 95.5 mm 11.0° 1007.4 hPa 1.8 m/s 95.5 mm
08:00 10.5° 1007.3 hPa 1.7 m/s 98.3 mm 10.5° 1007.3 hPa 1.7 m/s 98.3 mm
14:00 10.2° 1007.2 hPa 0.3 m/s 106.7 mm 10.2° 1007.2 hPa 0.3 m/s 106.7 mm
20:00 10.1° 1007.3 hPa 1.2 m/s 110.9 mm 10.1° 1007.3 hPa 1.2 m/s 110.9 mm
 07:33     18:41    Daglengte: 11:08 Maandag 04 Okt
02:00 10.3° 1007.7 hPa 2.8 m/s 118.6 mm 10.3° 1007.7 hPa 2.8 m/s 118.6 mm
08:00 8.7° 1012.3 hPa 5.5 m/s 118.7 mm 8.7° 1012.3 hPa 5.5 m/s 118.7 mm
14:00 12.7° 1017.9 hPa 5.0 m/s 118.8 mm 12.7° 1017.9 hPa 5.0 m/s 118.8 mm
20:00 10.9° 1021.0 hPa 4.5 m/s 118.9 mm 10.9° 1021.0 hPa 4.5 m/s 118.9 mm
 07:36     18:38    Daglengte: 11:02 Dinsdag 05 Okt
02:00 11.3° 1022.2 hPa 3.8 m/s 119.2 mm 11.3° 1022.2 hPa 3.8 m/s 119.2 mm
08:00 11.6° 1022.2 hPa 5.1 m/s 119.7 mm 11.6° 1022.2 hPa 5.1 m/s 119.7 mm
14:00 13.1° 1022.2 hPa 5.6 m/s 120.1 mm 13.1° 1022.2 hPa 5.6 m/s 120.1 mm
20:00 11.4° 1021.4 hPa 3.7 m/s 120.4 mm 11.4° 1021.4 hPa 3.7 m/s 120.4 mm
 07:38     18:35    Daglengte: 10:57 Woensdag 06 Okt
02:00 9.6° 1009.5 hPa 0.9 m/s 2.2 mm
08:00 8.9° 1009.3 hPa 0.5 m/s 1.4 mm
14:00 11.1° 1009.5 hPa 0.8 m/s 1.7 mm
20:00 10.0° 1010.0 hPa 1.1 m/s 1.9 mm
 07:40     18:32    Daglengte: 10:52 Donderdag 07 Okt
02:00 8.9° 1011.4 hPa 0.4 m/s 0.4 mm
08:00 8.1° 1012.4 hPa 1.0 m/s 0.9 mm
14:00 10.7° 1013.5 hPa 1.1 m/s 0.8 mm
20:00 9.6° 1014.0 hPa 1.9 m/s 0.8 mm
 07:43     18:29    Daglengte: 10:46 Vrijdag 08 Okt
02:00 8.9° 1014.4 hPa 2.0 m/s 1.2 mm
08:00 8.2° 1014.3 hPa 1.2 m/s 1.0 mm
14:00 10.8° 1014.5 hPa 2.1 m/s 0.7 mm
20:00 9.4° 1014.6 hPa 1.8 m/s 0.5 mm
 07:45     18:26    Daglengte: 10:41 Zaterdag 09 Okt
02:00 8.7° 1014.7 hPa 1.2 m/s 0.4 mm
08:00 8.3° 1014.5 hPa 1.0 m/s 0.9 mm
14:00 10.8° 1014.9 hPa 1.8 m/s 0.7 mm
20:00 9.6° 1014.8 hPa 2.0 m/s 0.7 mm
 07:47     18:23    Daglengte: 10:36 Zondag 10 Okt
02:00 8.8° 1014.8 hPa 1.2 m/s 0.9 mm
08:00 8.3° 1014.1 hPa 0.8 m/s 0.5 mm
14:00 10.9° 1014.2 hPa 1.2 m/s 0.6 mm
20:00 9.6° 1015.1 hPa 1.2 m/s 0.4 mm
 07:50     18:21    Daglengte: 10:31 Maandag 11 Okt
02:00 8.4° 1016.3 hPa 0.8 m/s 0.3 mm
FMI Hirlam - 7.5 km EWN WRFDA - 12 km DWD ICON - 7 km GFS - 25 km Basiskaart






























































Updatetijd (Europe/Amsterdam) Resolutie Lengte Stap
FMI Hirlam 01:45, 07:45, 13:45, 19:45 7.5 km 49h 1h
EWN WRFDA 15:45, 21:45, 03:45, 09:45 12 km 73h 1h
DWD ICON 23:45, 05:45, 11:45, 17:45 7 km 75h 1h
GFS 02:15, 08:15, 14:15, 20:15 25 km 237h 3h
30+ mm
25-30 mm
20-25 mm
15-20 mm
10-15 mm
6-10 mm
4-6 mm
2-4 mm
1-2 mm
0.5-1 mm
0.2-0.5 mm
0.1-0.2 mm
30+ mm
25-30 mm
20-25 mm
15-20 mm
10-15 mm
6-10 mm
4-6 mm
2-4 mm
1-2 mm
0.5-1 mm
0.2-0.5 mm
0.1-0.2 mm
Sneeuwval
Natte sneeuw
Hagel
Vorst
30+ mm
25-30 mm
20-25 mm
15-20 mm
10-15 mm
6-10 mm
4-6 mm
2-4 mm
1-2 mm
0.5-1 mm
0.2-0.5 mm
0.1-0.2 mm
Sneeuwval
Natte sneeuw
Hagel
Vorst
Onweer
50 mm
40 mm
30 mm
26 mm
22 mm
18 mm
14 mm
10 mm
9 mm
8 mm
7 mm
6 mm
5 mm
4.5 mm
4 mm
3.5 mm
3 mm
2.5 mm
2 mm
1.5 mm
1 mm
0.8 mm
0.6 mm
0.4 mm
0.2 mm
0.05 mm
35°
30°
25°
20°
15°
10°
-5°
-10°
-15°
-20°
-25°
-30°
-35°
33> m/s
29 m/s
25 m/s
21 m/s
17 m/s
14 m/s
11 m/s
8 m/s
5 m/s
3 m/s
0 m/s
2600 J/kg
2400 J/kg
2200 J/kg
2000 J/kg
1800 J/kg
1600 J/kg
1400 J/kg
1200 J/kg
1000 J/kg
800 J/kg
600 J/kg
400 J/kg
200 J/kg
70 dBZ
65 dBZ
60 dBZ
55 dBZ
50 dBZ
45 dBZ
40 dBZ
35 dBZ
30 dBZ
25 dBZ
20 dBZ
15 dBZ
10 dBZ
5 dBZ
-1 K
-2 K
-3 K
-4 K
-5 K
-6 K
-7 K
-8 K
-9 K
950 m²/s²
900 m²/s²
850 m²/s²
800 m²/s²
750 m²/s²
700 m²/s²
650 m²/s²
600 m²/s²
550 m²/s²
500 m²/s²
450 m²/s²
400 m²/s²
350 m²/s²
300 m²/s²
250 m²/s²
200 m²/s²
150 m²/s²
100 m²/s²
46 m/s
44 m/s
42 m/s
40 m/s
38 m/s
36 m/s
34 m/s
32 m/s
30 m/s
28 m/s
26 m/s
24 m/s
22 m/s
20 m/s
16 m/s
12 m/s
8 m/s
4 m/s
30 m/s
28 m/s
26 m/s
24 m/s
22 m/s
20 m/s
18 m/s
16 m/s
14 m/s
12 m/s
10 m/s
8 m/s
6 m/s
4 m/s
2 m/s
3.0
2.8
2.6
2.4
2.2
2.0
1.8
1.6
1.4
1.2
1.0
0.8
0.6
0.4
0.2
15
14
13
12
11
10
9
8
7
6
5
4
3
2
1
90%
80%
70%
60%
50%
40%
30%
20%
10%
42
40
38
36
34
32
30
28
26
24
22
20
18
16
14
12
90+ cm
80-90 cm
70-80 cm
60-70 cm
50-60 cm
40-50 cm
30-40 cm
20-30 cm
10-20 cm
1-10 cm
Sneeuwval
Natte sneeuw
Regen
>120 mm
115 mm
110 mm
105 mm
100 mm
95 mm
90 mm
85 mm
80 mm
75 mm
70 mm
65 mm
60 mm
55 mm
50 mm
45 mm
45 mm
40 mm
35 mm
30 mm
25 mm
20 mm
15 mm
10 mm
5 mm
0.1 mm
960 hPa
880 hPa
800 hPa
720 hPa
640 hPa
560 hPa
584 gpdm
568 gpdm
552 gpdm
536 gpdm
520 gpdm
504 gpdm
488 gpdm
Extreem zwaar Noodweer Kans op onweer
15% 15% 5% 50% 15%

Dag




Kaart






35°
30°
25°
20°
15°
10°
-5°
-10°
-15°
-20°
-25°
-30°
-35°
33> m/s
29 m/s
25 m/s
21 m/s
17 m/s
14 m/s
11 m/s
8 m/s
5 m/s
3 m/s
0 m/s
Extreem zwaar Noodweer Kans op onweer
15% 15% 5% 50% 15%
>120 mm
115 mm
110 mm
105 mm
100 mm
95 mm
90 mm
85 mm
80 mm
75 mm
70 mm
65 mm
60 mm
55 mm
50 mm
45 mm
45 mm
40 mm
35 mm
30 mm
25 mm
20 mm
15 mm
10 mm
5 mm
0.1 mm
Onweer risico kaarten - De groene en gele kleur geeft de kans op onweer aan binnen 40 km van een punt. Oranje, rood en violet hebben hetzelfde niveau zoals je het ziet op estofex.org waaronder ook de kans op hagel en supercells.

dBZ - dBZ staat voor decibel ten opzichte van Z.

Cape - Convective available potential energy (CAPE), is de totale hoeveelheid energie die een luchtpakketje nodig heeft om zover mogelijk te stijgen in de atmosfeer.

K Index - K-Index wordt berekend door de Vertical Totals (VT) en het verschil tussen de 850 hPa temperatuur en de 700 hPa dauwpuntsdepressie (Tdd 700) bij elkaar op te tellen.

TT Index - Convectie index wordt gebruikt voor het voorspellen van zware buien of onweer.

WRF - The Weather Research and Forecasting (WRF) is een volgende generatie mesoscale numeriek weersvoorspelling systeem ontworpen om zowel de operationele planning als het atmosferisch onderzoek te dienen. WRF is a cooperatie tussen het National Center for Atmospheric Research (NCAR), National Centers for Environmental Prediction (NCEP), Forecast Systems Laboratory (FSL), Air Force Weather Agency (AFWA), Naval Research Laboratory, University of Oklahoma, en de Federal Aviation Administration (FAA). Deze software draait op onze server.

WRFDA - Een meer geavanceerde versie van WRF

Arome - Het 2.5 km Arome model. Verzorgd door het Noors Meteorologisch Instituut.

MET Norway - De proff-default 4km meteorological data is een beste keus selectie van meteorologische modellen gebruikt door met.no die zijn geïnterpoleerd tot een gemeenschappelijke dataset. Verzorgd door het Noorse Meteorologisch Instituut.

SMHI - Het Hirlam model verzorgd door het Zweeds meteorologisch instituut.

FMI - Het Hirlam model verzorgd door het Fins meteorologisch instituut. Dekking alleen Finland.

GFS - Het Global Forecast Systeem (GFS) is een wereldwijd numerieke weersvoorspelling computermodel, gerund door NOAA.

GEM-GDPS - Het GEM-GDPS is a wereldwijd numeriek weersvoorspelling computermodel verzorgd door het Canadees Meteorologisch Centrum.

Credits/Info: Dank aan Stefan Gofferje van sääkeskus.fi voor enkele formules van GrADS. Info: Wikipedia.

Betrouwbaarheid van de verwachting

NB! 2015-03-29: Rebuilding the accuracy-test!

EWNACC
Day 1 Good forecasts

Dag 1 Tmax

Dag 2 Tmax

Geladen verwachtingen TOP 50

Totaal geladen verwachtingen:
Plaats Latitude Longitude Verwachtingen Plaats Latitude Longitude Verwachtingen